Regional Weather Roundup
Issued by NWS

Home | Current Version | Previous Version | Text Only | Print | Product List | Glossary Off
Versions: 1 2 3 4 5 6 7 8 9 10 11 12 13 14 15 16 17 18 19 20 21 22 23 24 25 26 27 28 29 30 31 32 33 34 35 36 37 38 39 40 41 42 43 44 45 46 47 48 49 50

000
ASUS43 KMPX 210910
RWRMN
WEATHER ROUNDUP FOR MINNESOTA
NATIONAL WEATHER SERVICE TWIN CITIES/CHANHASSEN MN
400 AM CDT MON AUG 21 2017


NOTE: "FAIR" INDICATES FEW OR NO CLOUDS BELOW 12,000 FEET WITH NO
SIGNIFICANT WEATHER AND/OR OBSTRUCTIONS TO VISIBILITY. N/A MEANS
CURRENT SKY AND/OR WEATHER CONDITIONS ARE NOT AVAILABLE.

MNZ060>063-068>070-211000-
   Twin Cities Metro

CITY           SKY/WX    TMP DP  RH WIND       PRES   REMARKS
TWIN CITIES    CLOUDY    69  58  67 E6        30.03R
ST PAUL        CLOUDY    68  59  73 E5        30.04R
CRYSTAL        CLOUDY    64  60  87 CALM      30.03R
BLAINE         MOCLDY    64  63  94 CALM      30.04R
LAKEVILLE      CLOUDY    64  64 100 CALM      30.03S
EDEN PRAIRIE   CLOUDY    69  62  78 NE7       30.01S
SOUTH ST PAUL  MOCLDY    69  58  68 NE5       30.03R
LAKE ELMO      MOCLDY    64  61  88 E3        30.05R
$$
MNZ001>005-007-008-013>017-022>024-027-028-211000-
   Northwest Minnesota

CITY           SKY/WX    TMP DP  RH WIND       PRES   REMARKS
BEMIDJI        CLOUDY    46  45  93 CALM      30.02F
HALLOCK        PTCLDY    50  46  87 SE7       29.98F
ROSEAU         CLOUDY    48  45  87 S3        29.99F
WARROAD        PTCLDY    50  46  87 S5        30.01S
THIEF RVR FALL CLOUDY    51  46  83 SE5       30.03S
CROOKSTON      CLOUDY    54  48  82 SE5       30.01S
FOSSTON        CLOUDY    48  46  93 CALM      30.02F
DETROIT LAKES  CLOUDY    57  55  94 CALM      30.03F
MOORHEAD       MOCLDY    55  54  94 CALM      30.02S
PARK RAPIDS    PTCLDY    57  53  86 CALM      30.01F
MAHNOMEN       FAIR      55  52  90 E6        30.01F
$$
MNZ006-009>011-018-025>026-211000-
   North Central Minnesota

CITY           SKY/WX    TMP DP  RH WIND       PRES   REMARKS
BAUDETTE       CLOUDY    48  46  93 SE3       30.00F
FLAG ISLAND    CLOUDY    63  45  51 W5        29.97F HAZE
INTL FALLS     PTCLDY    43  41  93 CALM      30.02S
WASKISH        PTCLDY    46  45  93 CALM      30.01F
BIG FORK       CLOUDY    45  45 100 CALM      30.03F
LONGVILLE      FOG       48  48 100 CALM      30.02F VSB 3/4
GRAND RAPIDS   PTCLDY    52  52 100 CALM      30.04F
CRANE LAKE     CLEAR     43  43 100 CALM      30.04F
ORR            PTCLDY    46  43  87 CALM      30.01F
COOK           CLOUDY    48  46  93 CALM      30.04F
WALKER         FAIR      52  51  97 CALM      30.01F
$$
MNZ012-019>021-037-211000-
   Northeast Minnesota

CITY           SKY/WX    TMP DP  RH WIND       PRES   REMARKS
DULUTH         CLEAR     52  51  97 CALM      30.04R
ELY            CLEAR     48  46  93 CALM      30.02F
HIBBING        PTCLDY    44  44 100 CALM      30.02F FOG
EVELETH        CLOUDY    47  44  90 CALM      30.04S
DULUTH HARBOR  PTCLDY    59  55  88 SW6       30.03R
TWO HARBORS    CLEAR     55  52  88 CALM      30.01F
SILVER BAY     CLEAR     46  46 100 CALM      30.01S
GRAND MARAIS     N/A     55  51  86 NW3       30.00S
G MARAIS ARPRT CLEAR     55  46  71 NW6       30.03F
$$
MNZ029>031-032-039>041-046>048-054>057-064-211000-
   West Central Minnesota

CITY           SKY/WX    TMP DP  RH WIND       PRES   REMARKS
FERGUS FALLS   CLEAR     57  55  94 E3        30.02R
WHEATON        CLEAR     54  52  94 CALM      30.03S
MORRIS         PTCLDY    54  54 100 CALM      30.01S FOG
ALEXANDRIA     PTCLDY    57  54  89 E5        30.04S
ELBOW LAKE     FAIR      59  55  88 CALM      30.02R
WADENA         PTCLDY    55  55 100 CALM      30.02F
GLENWOOD       CLEAR     55  54  94 E6        30.03F
APPLETON       CLEAR     54  52  94 CALM      30.02S
BENSON         FOG       52  50  93 CALM      30.04R VSB 1/2
ORTONVILLE     CLEAR     55  54  94 MISG      30.02S
MADISON        MOCLDY    57  57 100 CALM      30.04R
WILLMAR        FAIR      63  57  82 E6        30.05R
$$
MNZ033>034-036-042>043-049>051-058-059-211000-
   Central Minnesota

CITY           SKY/WX    TMP DP  RH WIND       PRES   REMARKS
ST CLOUD       CLEAR     55  55 100 SE3       30.04R
SAUK CENTRE    PTSUNNY   57  53  89 SE5       30.04S
PAYNESVILLE    CLEAR     54  53  98 CALM      30.05R
AITKIN         FOG       46  45  93 CALM      30.01F VSB 1
PINE RIVER     CLOUDY    50  48  93 CALM      30.04F
BRAINERD       CLOUDY    55  54  96 CALM      30.02F
STAPLES        MOCLDY    55  54  94 S3        30.03R
LONG PRAIRIE   MOCLDY    54  54 100 CALM      30.03F
LITTLE FALLS   MOCLDY    54  52  94 CALM      30.04S FOG
LITCHFIELD     CLOUDY    63  61  94 CALM      30.04R
BUFFALO        MOCLDY    59  56  91 CALM      30.05R
MAPLE LAKE     PTCLDY    58  57  97 CALM      30.06R
HUTCHINSON     CLOUDY    64  62  94 NE3       30.04S
$$
MNZ037-044-045-052-053-211000-
   East Central Minnesota

CITY           SKY/WX    TMP DP  RH WIND       PRES   REMARKS
PRINCETON      MOCLDY    55  54  94 CALM      30.05R FOG
MORA           CLEAR     55  54  94 CALM      30.06R
CAMBRIDGE      CLEAR     57  57 100 CALM      30.06R FOG
RUSH CITY      MOCLDY    54  53  96 CALM      30.05R
MOOSE LAKE     FOG       48  46  93 CALM      30.02R VSB 3/4
HINCKLEY       FAIR      52  52 100 CALM      30.05R
CLOQUET        CLEAR     52  48  87 CALM      30.04R
MCGREGOR         N/A     46  46 100 CALM      30.04S VSB 1/2
$$
MNZ071>073-080-081-089-090-097-098-211000-
   Southwest Minnesota

CITY           SKY/WX    TMP DP  RH WIND       PRES   REMARKS
MONTEVIDEO     CLOUDY    57  55  94 S5        30.04R
GRANITE FALLS  CLOUDY    63  61  91 E3        30.05R
CANBY          MOCLDY    58  57  96 CALM      30.05R
MARSHALL       CLOUDY    61  60  97 W5        30.03S FOG
REDWOOD FALLS  CLOUDY    64  59  83 E7        30.02S
OLIVIA         CLOUDY    61  55  82 E5        30.02S
PIPESTONE      CLEAR     66  61  82 E8        30.01F
WINDOM         LGT RAIN  66  63  88 E5        30.03S
WORTHINGTON    MOCLDY    65  64  97 NE6       30.02S
JACKSON        CLOUDY    66  64  94 CALM      30.02F
TRACY          CLOUDY    63  63  98 CALM      30.03F
SLAYTON        CLOUDY    63  59  86 NE5       30.04F
$$
MNZ065>067-074>077-082>085-091>093-211000-
   South Central Minnesota

CITY           SKY/WX    TMP DP  RH WIND       PRES   REMARKS
MANKATO        CLOUDY    69  66  90 E7        30.03R
NEW ULM        CLOUDY    66  61  82 E7        30.02S
ST JAMES       CLOUDY    66  66 100 NE3       30.02F
FAIRMONT       CLOUDY    70  67  90 S7        30.02
GLENCOE        CLOUDY    65  64  96 N3        30.02F
FARIBAULT      LGT RAIN  66  64  94 E3        30.04R
OWATONNA       CLOUDY    68  64  88 CALM      30.05R
WASECA         CLOUDY    68  64  88 E5        30.05R
ALBERT LEA     CLOUDY    72  70  94 S5        30.05S
$$
MNZ078>079-086>088-094>096-211000-
   Southeast Minnesota

CITY           SKY/WX    TMP DP  RH WIND       PRES   REMARKS
ROCHESTER      CLOUDY    65  65 100 CALM      30.04S
RED WING       CLOUDY    66  63  88 CALM      30.02S
STANTON        CLOUDY    66  63  90 NE5       30.01F
DODGE CENTER   CLOUDY    64  63  94 CALM      30.05R
WINONA         CLOUDY    70  68  94 CALM      30.03R
AUSTIN         CLOUDY    66  64  94 SW3       30.05R
PRESTON        CLOUDY    65  63  92 S3        30.05R
$$
ABBREVIATIONS USED IN REMARKS
   TC - TEMPERATURES IN CELSIUS
  WCI - WIND CHILL INDEX
   HX - HEAT INDEX
  VSB - VISIBILITY
$$




USA.gov is the U.S. government's official web portal to all federal, state and local government web resources and services.